This demonstration page uses our WeatherBlox Daily Observations layout. Learn more.

Left ArrowRight Arrow

39.12711, -84.51439

Hourly Observations for November 15, 2020

Temp ( °F °C ) Dew Point ( °F °C ) Humidity (%) Winds ( mph kmh ) Pressure ( in mb ) Visibility ( mi km ) Precip ( " mm )
12:53 am 00:53 Cloudy 58 14.4 37 2.8 46 46 S 13 20 29.80 1009 10 16 0.00 0.00
1:53 am 01:53 Partly Cloudy 60 15.6 37 2.8 42 42 S 16 26 29.75 1007 10 16 0.00 0.00
2:53 am 02:53 Partly Cloudy 61 16.1 39 3.9 44 44 S 18 30 29.68 1005 10 16 0.00 0.00
3:53 am 03:53 Mostly Cloudy 63 17.2 42 5.6 47 47 S 17 28 29.65 1004 10 16 0.00 0.00
4:53 am 04:53 Cloudy with Rain 62 16.7 47 8.3 58 58 SSW 23 37 29.65 1004 8 13 0.01 0.25
5:53 am 05:53 Cloudy with Light Rain 56 13.3 51 10.6 84 84 S 21 33 29.59 1002 7 11 0.14 3.56
6:53 am 06:53 Cloudy with Light Rain 57 13.9 51 10.6 81 81 W 15 24 29.64 1004 10 16 0.01 0.25
7:53 am 07:53 Cloudy with Rain 56 13.3 53 11.7 90 90 SSW 13 20 29.65 1004 5 8 0.05 1.27
8:53 am 08:53 Cloudy with Light Rain 56 13.3 52 11.1 87 87 S 13 20 29.61 1003 6 10 0.04 1.02
9:53 am 09:53 Cloudy with Mist and Fog 57 13.9 53 11.7 87 87 SSW 16 26 29.63 1004 6 10 0.00 0.00
10:53 am 10:53 Mostly Cloudy 59 15 50 10 72 72 SW 21 33 29.65 1004 8 13 0.00 0.00
11:53 am 11:53 Partly Cloudy 57 13.9 38 3.3 49 49 W 30 48 29.73 1007 10 16 0.00 0.00
12:53 pm 12:53 Partly Cloudy 55 12.8 37 2.8 51 51 W 25 41 29.78 1009 10 16 0.00 0.00
1:53 pm 13:53 Cloudy 53 11.7 35 1.7 51 51 W 24 39 29.83 1010 10 16 0.00 0.00
2:53 pm 14:53 Partly Cloudy 52 11.1 36 2.2 55 55 W 20 31 29.88 1012 10 16 0.00 0.00
3:53 pm 15:53 Mostly Cloudy 52 11.1 34 1.1 50 50 WSW 21 33 29.92 1013 10 16 0.00 0.00
4:53 pm 16:53 Sunny 50 10 32 0 50 50 WSW 15 24 29.94 1014 10 16 0.00 0.00
5:53 pm 17:53 Mostly Cloudy 50 10 32 0 50 50 SW 16 26 29.98 1015 10 16 0.00 0.00
6:53 pm 18:53 Partly Cloudy 49 9.4 32 0 52 52 WSW 14 22 30.00 1016 10 16 0.00 0.00
7:53 pm 19:53 Clear 48 8.9 31 -0.6 52 52 WSW 12 19 30.04 1017 10 16 0.00 0.00
8:53 pm 20:53 Cloudy 49 9.4 31 -0.6 50 50 WSW 13 20 30.06 1018 10 16 0.00 0.00
9:53 pm 21:53 Mostly Cloudy 48 8.9 29 -1.7 48 48 WSW 17 28 30.08 1019 10 16 0.00 0.00
10:53 pm 22:53 Mostly Clear 46 7.8 29 -1.7 51 51 WSW 10 17 30.09 1019 10 16 0.00 0.00
11:53 pm 23:53 Clear 45 7.2 29 -1.7 54 54 WSW 14 22 30.09 1019 10 16 0.00 0.00

Powered by AerisWeather